Hurghada, Egypt

4:25 AM EET on January 20, 2017 (GMT +0200)
Hurghada International

Weather History for HEGN - April, 2013

Change the Weather History Date:

Wednesday, April 3, 2013

  Actual Average Record
Temperature  
Mean Temperature 80 °F -  
Max Temperature 93 °F 82 °F 94 °F (2016)
Min Temperature 66 °F 65 °F 59 °F (2002)
Cooling Degree Days 14    
Growing Degree Days 30 (Base 50)    
Moisture  
Dew Point 45 °F    
Average Humidity 34    
Maximum Humidity 68    
Minimum Humidity 8    
Precipitation  
Precipitation 0.00 in - - ()
Sea Level Pressure  
Sea Level Pressure 29.83 in    
Wind  
Wind Speed 10 mph ()    
Max Wind Speed 17 mph    
Max Gust Speed -    
Visibility 6.0 miles    
Events      
Averages and records for this station are not official NWS values.
T = Trace of Precipitation, MM = Missing Value Source: Averaged Metar Reports

Daily Weather History Graph

Daily Weather History Graph

Search for Another Location

Airport or City:

Trip Planner

Search our weather history database for the weather conditions in past years. The results will help you decide how hot, cold, wet, or windy it might be!

Date:

Astronomy

Apr. 03, 2013 Rise Set
Actual Time 5:33 AM EET 6:03 PM EET
Civil Twilight 5:10 AM EET 6:26 PM EET
Nautical Twilight 4:42 AM EET 6:54 PM EET
Astronomical Twilight 4:14 AM EET 7:22 PM EET
Moon 12:22 AM EET (4/3) 11:27 AM EET (4/3)
Length of Visible Light 13h 16m
Length of Day
12h 29m
Waning Gibbous, 47% of the Moon is Illuminated
Apr 3
Waning Gibbous
Apr 10
New
Apr 18
First Quarter
Apr 25
Full
May 2
Last Quarter

Hourly Weather History & Observations

Time (EET) Temp. Dew Point Humidity Pressure Visibility Wind Dir Wind Speed Gust Speed Precip Events Conditions
12:00 AM 75.2 °F 35.6 °F 24% 29.89 in - NW 17.3 mph - N/A   Clear
1:00 AM 73.4 °F 37.4 °F 27% 29.86 in - WNW 13.8 mph - N/A   Clear
2:00 AM 73 °F 39 °F 19% 29.87 in 6 mi WNW 13.8 mph - -  
2:00 AM 73.4 °F 39.2 °F 29% 29.86 in - WNW 13.8 mph - N/A   Clear
3:00 AM 71.6 °F 35.6 °F 27% 29.86 in - NW 13.8 mph - N/A   Clear
4:00 AM 69.8 °F 35.6 °F 28% 29.86 in - WNW 15.0 mph - N/A   Clear
5:00 AM 68.0 °F 35.6 °F 30% 29.86 in - WNW 10.4 mph - N/A   Clear
6:00 AM 66.2 °F 37.4 °F 35% 29.89 in - WNW 5.8 mph - N/A   Clear
7:00 AM 71.6 °F 39.2 °F 31% 29.89 in - WNW 5.8 mph - N/A   Clear
8:00 AM 76 °F 43 °F 20% 29.90 in 6 mi North 6.9 mph - -   Clear
8:00 AM 77.0 °F 42.8 °F 29% 29.89 in - North 6.9 mph - N/A   Clear
9:00 AM 78.8 °F 46.4 °F 32% 29.89 in - NNW 10.4 mph - N/A   Clear
10:00 AM 82.4 °F 44.6 °F 26% 29.89 in - NNW 13.8 mph - N/A   Clear
11:00 AM 84.2 °F 37.4 °F 19% 29.86 in - North 13.8 mph - N/A   Clear
12:00 PM 87.8 °F 41.0 °F 19% 29.83 in - NNE 9.2 mph - N/A   Clear
1:00 PM 91.4 °F 39.2 °F 16% 29.80 in - NE 9.2 mph - N/A   Clear
2:00 PM 92 °F 38 °F 8% 29.80 in 6 mi ENE 5.8 mph - -   Clear
2:00 PM 93.2 °F 39.2 °F 15% 29.77 in - ENE 5.8 mph - N/A   Clear
3:00 PM 91.4 °F 48.2 °F 23% 29.77 in - SE 6.9 mph - N/A   Clear
4:00 PM 86.0 °F 48.2 °F 27% 29.74 in - SE 8.1 mph - N/A   Clear
5:00 PM 86.0 °F 51.8 °F 31% 29.74 in - ESE 8.1 mph - N/A   Clear
6:00 PM 77.0 °F 57.2 °F 50% 29.74 in - SSE 5.8 mph - N/A   Clear
7:00 PM 75.2 °F 60.8 °F 61% 29.77 in - SE 8.1 mph - N/A   Clear
8:00 PM 74 °F 61 °F 55% 29.78 in 6 mi SE 9.2 mph - -  
8:00 PM 75.2 °F 60.8 °F 61% 29.77 in - SE 9.2 mph - N/A   Clear
9:00 PM 73.4 °F 60.8 °F 65% 29.77 in - SSE 5.8 mph - N/A   Clear
10:00 PM 69.8 °F 59.0 °F 68% 29.80 in - Calm Calm - N/A   Clear
11:00 PM 69.8 °F 59.0 °F 68% 29.80 in - Calm Calm - N/A   Clear